Regional Weather Roundup
Issued by NWS

Home | Current Version | Previous Version | Text Only | Print | Product List | Glossary Off
Versions: 1 2 3 4 5 6 7 8 9 10 11 12 13 14 15 16 17 18 19 20 21 22 23 24 25 26 27 28 29 30 31 32 33 34 35 36 37 38 39 40 41 42 43 44 45 46 47 48 49 50

000
ASUS45 KBOU 020707
RWRCO

WEATHER ROUNDUP FOR COLORADO
NATIONAL WEATHER SERVICE DENVER/BOULDER CO
100 AM MDT TUE JUN 02 2015

NOTE: "FAIR" INDICATES FEW OR NO CLOUDS BELOW 12000 FEET WITH NO
SIGNIFICANT WEATHER AND/OR OBSTRUCTIONS TO VISIBILITY.

COZ001>005-013-030-031-020800-
...NORTHWEST COLORADO...

CITY           SKY/WX    TMP DP  RH WIND       PRES   REMARKS
CRAIG          PTCLDY    50  44  80 E3        30.01S
HAYDEN         PTCLDY    55  39  54 SE6       30.03S
MEEKER         PTCLDY    54  39  57 E7        30.02S
MOUNT WERNER   NOT AVBL
STEAMBOAT SPGS PTCLDY    50  41  71 NE3       30.07R
WALDEN         PTCLDY    46  36  66 E7        30.15F
$$

COZ006>008-011-020800-
...WEST CENTRAL VALLEYS...

CITY           SKY/WX    TMP DP  RH WIND       PRES   REMARKS
GRAND JUNCTION CLEAR     63  29  27 NE7       29.92S
MONTROSE       CLEAR     63  30  28 SE10      30.04S
EAGLE          CLEAR     64  52  63 S3        30.11R
RIFLE          CLEAR     60  40  47 CALM      29.99R
DELTA          CLEAR     62  36  38 NE8       29.99S
NUCLA          CLEAR     59  27  29 E10       30.08S
$$

COZ017>023-064>068-020800-
...SOUTHWEST COLORADO...

CITY           SKY/WX    TMP DP  RH WIND       PRES   REMARKS
DURANGO        MOCLDY    54  38  54 N8        30.16S
CORTEZ         CLEAR     61  23  23 S6        30.09R
PAGOSA SPRINGS MOCLDY    54  37  52 CALM      30.26R
TELLURIDE      PTCLDY    55  25  30 CALM      30.32F
WOLF CREEK PAS NOT AVBL
$$

COZ009-010-012-014-032>034-037-058>063-020800-
...CENTRAL COLORADO...

CITY           SKY/WX    TMP DP  RH WIND       PRES   REMARKS
ASPEN          CLEAR     53  36  52 SW9       30.16S
BUENA VISTA    PTCLDY    47  36  65 W5        30.24S
COPPER MTN     PTCLDY    46  27  46 S23       30.47F
BERTHOUD PASS  FAIR      39  32  75 W16G25    30.49F
COTTONWOOD PAS NOT AVBL
GUNNISON       PTCLDY    50  37  62 N5        30.25S
KREMMLING      PTCLDY    50  41  71 CALM      30.16S
LEADVILLE      CLEAR     40  30  67 E3        30.33S
MONARCH PASS   PTCLDY    43  32  65 SW22G29   30.58F
SALIDA         PTCLDY    53  40  60 CALM      30.28F
SUNLIGHT       CLEAR     50  27  40 CALM      30.38S
WILKERSON PASS CLEAR     43  32  65 SW8       30.45F
$$

COZ069>075-020800-
...SAN LUIS VALLEY/SANGRE DE CRISTO MOUNTAINS...

CITY           SKY/WX    TMP DP  RH WIND       PRES   REMARKS
ALAMOSA        MOCLDY    58  41  53 S12       30.23F
LA VETA PASS   PTCLDY   N/A N/A N/A MISG      30.39F
SAGUACHE       PTCLDY    48  41  76 NW6       30.26F
$$

COZ035-036-038>040-020800-
...NORTHERN COLORADO FRONT RANGE...

CITY           SKY/WX    TMP DP  RH WIND       PRES   REMARKS
DENVER INTL AP PTCLDY    63  47  55 W7        30.02R
DMNS CITY PARK NOT AVBL
AURORA         MOCLDY    65  45  48 SW13      30.03R
FRONT RANGE AP PTCLDY    64  46  52 MISG      30.02R
ERIE MUNI ARPT PTCLDY    60  50  68 CALM      29.97F
BOULDER MUN AP PTCLDY    63  45  51 CALM      29.98S
CENTENNIAL     PTCLDY    62  45  53 S9        30.04R
BROOMFIELD     PTCLDY    61  48  63 SE3       30.01F
FORT COLLINS   PTCLDY    59  50  72 E8        29.98F
LONGMONT       PTCLDY    64  47  55 CALM      29.99S
$$

COZ041-046-047-076>085-087-088-020800-
...PIKES PEAK/PALMER DIVIDE AND SOUTHERN FOOTHILLS...

CITY           SKY/WX    TMP DP  RH WIND       PRES   REMARKS
COLO. SPRINGS  PTCLDY    62  45  53 SE10      30.11F
A. F. ACADEMY  PTCLDY    60  43  54 E6        30.11F
ELLICOTT       PTCLDY   N/A N/A N/A W6        30.10F
FALCON         PTCLDY    55  45  68 SW10      30.16F
FORT CARSON    NOT AVBL
LIMON          MOCLDY    62  47  57 SW13      30.04S
MONUMENT HILL  CLEAR     54  43  66 MISG      30.13F
TRINIDAD       PTCLDY    57  47  69 SW8       30.12F
$$

COZ042>045-048>051-090-091-020800-
...NORTHEAST COLORADO...

CITY           SKY/WX    TMP DP  RH WIND       PRES   REMARKS
GREELEY ARPT   PTCLDY    61  52  72 SE13      29.95F
AKRON          CLOUDY    61  60  97 E7        30.00R
BURLINGTON     CLOUDY    65  54  67 SW5       29.97F
WRAY           CLOUDY    64  59  85 E13G23    29.95F THUNDER
STERLING       CLOUDY    61  57  88 N10       29.95S
HOLYOKE        NOT AVBL
FORT MORGAN    CLOUDY    58  -8   6 NE9       29.98F
$$

COZ086-089-092>099-020800-
...SOUTHEAST COLORADO...

CITY           SKY/WX    TMP DP  RH WIND       PRES   REMARKS
PUEBLO         CLEAR     57  52  83 N7        30.02F
LA JUNTA       PTCLDY    67  51  56 MISG      29.98F
LAMAR          MOCLDY    70  53  54 SE18G24   29.93F
SPRINGFIELD      N/A     57  53  86 W6        30.01F
$$



USA.gov is the U.S. government's official web portal to all federal, state and local government web resources and services.